This is the latest recevied weather packets stored in our database for station/object N6GPM. If no packets are shown the sender has not sent any weather packets the latest 10 day(s).
| Time | Temp. | Humidity | Pressure | Rain* | Wind** | Luminosity | Snow |
|---|---|---|---|---|---|---|---|
| 1788036724 | 36.11° C | 29% | 1016.3 hPa | 0 mm | - | 1045 W/m² | - |
| 1788036421 | 35.56° C | 29% | 1016.1 hPa | 0 mm | - | 983 W/m² | - |
| 1788036115 | 36.11° C | 28% | 1016.4 hPa | 0 mm | - | 981 W/m² | - |
| 1788035815 | 35.56° C | 27% | 1016.4 hPa | 0 mm | - | 986 W/m² | - |
| 1788035510 | 35.56° C | 27% | 1016.2 hPa | 0 mm | - | 996 W/m² | - |
| 1788035205 | 36.11° C | 27% | 1016.5 hPa | 0 mm | - | 1002 W/m² | - |
| 1788034901 | 36.11° C | 28% | 1016.5 hPa | 0 mm | - | 1002 W/m² | - |
| 1788034597 | 36.11° C | 27% | 1016.5 hPa | 0 mm | - | 997 W/m² | - |
| 1788034293 | 36.11° C | 27% | 1016.7 hPa | 0 mm | - | 1011 W/m² | - |
| 1788033993 | 36.11° C | 26% | 1016.6 hPa | 0 mm | - | 1019 W/m² | - |
| 1788033688 | 36.11° C | 26% | 1016.5 hPa | 0 mm | - | 1008 W/m² | - |
| 1788033386 | 36.67° C | 26% | 1016.5 hPa | 0 mm | - | 1024 W/m² | - |
| 1788033082 | 37.22° C | 25% | 1016.8 hPa | 0 mm | - | 491 W/m² | - |
| 1788032782 | 36.67° C | 26% | 1016.8 hPa | 0 mm | - | 1201 W/m² | - |
| 1788032476 | 36.11° C | 26% | 1016.8 hPa | 0 mm | - | 911 W/m² | - |
| 1788032172 | 36.11° C | 26% | 1017.2 hPa | 0 mm | - | 1121 W/m² | - |
| 1788031869 | 35.56° C | 26% | 1017 hPa | 0 mm | - | 1079 W/m² | - |
| 1788031568 | 35.56° C | 26% | 1017 hPa | 0 mm | - | 1063 W/m² | - |
| 1788031267 | 36.11° C | 25% | 1017.2 hPa | 0 mm | - | 1034 W/m² | - |
| 1788030967 | 36.67° C | 25% | 1017 hPa | 0 mm | - | 1023 W/m² | - |
| 1788030661 | 36.11° C | 25% | 1017.4 hPa | 0 mm | - | 1038 W/m² | - |
| 1788030355 | 35.56° C | 26% | 1017.4 hPa | 0 mm | - | 1108 W/m² | - |
| 1788030051 | 35° C | 27% | 1017.3 hPa | 0 mm | - | 1068 W/m² | - |
| 1788029746 | 36.11° C | 26% | 1017.4 hPa | 0 mm | - | 1009 W/m² | - |
| 1788029441 | 35° C | 26% | 1017.4 hPa | 0 mm | - | 987 W/m² | - |
* Rain latest hour (hover to see other rain measurements)
** Current wind speed in m/s (hover to see current wind gust speed)